Location: Lombard
(41.8800°N, 88.0080°W)
Time: 19:05:40
(UTC-05:00)

Transit 2A - Pass Details

Date: 07 February 2023
Orbit: 591 x 964 km, 66.7° (Epoch: 29 March)

Event Time Altitude Azimuth Distance (km) Brightness Sun altitude
Rises 18:13:21 0° 281° (W) 3,131 10.6 -11.4°
Reaches altitude 10° 18:18:31 10° 326° (NW) 2,341 8.8 -12.3°
Maximum altitude 18:19:02 10° 331° (NNW) 2,345 8.8 -12.4°
Drops below altitude 10° 18:19:34 10° 337° (NNW) 2,367 8.7 -12.5°
Sets 18:25:10 0° 20° (NNE) 3,435 9.1 -13.5°
